Total_Precipitation_Accumulation
0.73 1.03 1.10 0.93 0.93 1.00 0.92 0.93 0.98 0.91 0.77 0.88 0.89 0.84 0.88 0.81 0.65 0.52 0.50 0.54 0.50 0.47 0.48 0.42 0.39 0.45 0.46 0.41 0.38 0.43 0.49 0.53 0.54 0.66 0.80 0.90 0.99 1.13 1.31 1.36 1.43 1.58 1.63 1.63
0.80 0.84 0.68 0.70 0.76 0.85 0.85 0.84 0.88 0.78 0.67 0.71 0.81 0.86 0.84 0.76 0.67 0.56 0.49 0.42 0.40 0.39 0.37 0.34 0.32 0.35 0.37 0.38 0.36 0.38 0.49 0.58 0.62 0.68 0.83 1.00 1.23 1.32 1.44 1.61 1.61 1.62 1.68 1.73
0.69 0.59 0.53 0.61 0.72 0.80 0.82 0.77 0.72 0.74 0.70 0.70 0.75 0.97 0.90 0.81 0.67 0.55 0.47 0.38 0.31 0.34 0.32 0.26 0.28 0.30 0.32 0.34 0.42 0.44 0.56 0.76 0.93 1.01 1.22 1.52 1.78 1.84 1.77 1.79 1.87 1.84 1.85 1.93
0.73 0.53 0.53 0.63 0.66 0.68 0.84 0.59 0.52 0.64 0.78 0.89 0.73 1.06 0.89 0.80 0.72 0.56 0.47 0.42 0.34 0.37 0.40 0.31 0.29 0.32 0.30 0.35 0.49 0.68 0.88 1.18 1.40 1.50 1.66 1.89 2.00 2.04 1.96 1.97 2.00 2.01 1.92 1.85
0.73 0.56 0.56 0.63 0.59 0.54 0.66 0.54 0.53 0.63 0.75 0.79 0.66 0.80 0.76 0.65 0.72 0.62 0.56 0.50 0.45 0.44 0.44 0.44 0.43 0.48 0.50 0.60 0.81 1.16 1.44 1.63 1.76 1.79 1.85 2.03 2.17 2.33 2.36 2.26 2.11 2.05 2.03 1.97
0.64 0.56 0.59 0.63 0.55 0.48 0.54 0.61 0.65 0.68 0.79 0.93 0.62 0.63 0.77 0.63 0.60 0.62 0.63 0.56 0.50 0.47 0.48 0.58 0.71 0.85 0.94 1.02 1.23 1.47 1.62 1.77 1.75 1.71 1.73 1.85 2.04 2.20 2.23 2.27 2.24 2.14 2.06 1.97
0.66 0.62 0.57 0.53 0.60 0.57 0.60 0.80 1.05 1.08 1.07 0.89 0.52 0.62 0.66 0.46 0.42 0.50 0.57 0.56 0.52 0.48 0.57 0.77 0.94 1.10 1.21 1.31 1.42 1.46 1.45 1.52 1.55 1.51 1.50 1.57 1.67 1.70 1.75 1.88 1.81 1.70 1.62 1.57
0.54 0.60 0.50 0.43 0.46 0.53 0.56 0.62 0.94 1.06 0.94 0.77 0.58 0.76 0.67 0.47 0.44 0.42 0.47 0.55 0.62 0.72 0.84 0.97 1.08 1.19 1.24 1.37 1.43 1.39 1.35 1.35 1.28 1.22 1.23 1.23 1.29 1.37 1.37 1.37 1.34 1.27 1.24 1.22
0.40 0.46 0.39 0.35 0.34 0.40 0.48 0.48 0.53 0.72 0.69 0.73 0.67 0.76 0.67 0.46 0.43 0.41 0.43 0.53 0.68 0.85 1.10 1.28 1.28 1.20 1.14 1.20 1.27 1.24 1.19 1.14 1.06 0.99 1.01 1.02 1.10 1.14 1.10 1.05 0.99 1.00 0.94 0.93
0.34 0.44 0.42 0.38 0.37 0.39 0.39 0.43 0.55 0.82 0.97 0.96 0.78 0.86 0.81 0.60 0.52 0.48 0.52 0.64 0.81 0.97 1.18 1.46 1.57 1.45 1.21 1.04 1.07 1.04 1.02 1.07 1.05 1.01 1.01 0.99 0.91 0.84 0.82 0.82 0.75 0.75 0.81 0.82
0.27 0.39 0.41 0.40 0.40 0.41 0.41 0.47 0.58 0.77 0.79 1.04 1.27 1.23 0.91 0.77 0.70 0.68 0.72 0.79 0.87 1.12 1.40 1.52 1.54 1.41 1.25 1.00 0.94 0.94 0.92 0.97 1.04 0.97 0.98 0.97 0.86 0.73 0.69 0.64 0.59 0.59 0.63 0.68
0.25 0.37 0.39 0.35 0.32 0.30 0.36 0.46 0.62 0.95 0.94 0.89 1.12 1.14 0.72 0.75 0.86 0.80 0.85 0.94 0.96 1.05 1.10 1.09 1.17 1.17 1.11 0.99 0.93 1.00 1.04 1.05 1.00 0.95 0.92 0.88 0.81 0.71 0.70 0.65 0.57 0.59 0.64 0.66
0.25 0.37 0.46 0.44 0.41 0.36 0.46 0.52 0.49 0.67 0.85 0.87 1.05 1.08 0.66 0.65 0.77 0.81 0.90 0.93 0.92 0.92 0.84 0.76 0.85 1.00 0.94 0.89 0.93 1.02 1.15 1.17 1.10 0.99 0.90 0.87 0.83 0.81 0.84 0.72 0.64 0.63 0.71 0.83
0.21 0.30 0.34 0.40 0.38 0.42 0.67 0.76 0.56 0.66 0.88 0.75 0.72 0.80 0.63 0.60 0.69 0.76 0.85 0.87 0.82 0.75 0.68 0.61 0.57 0.64 0.66 0.68 0.70 0.83 1.08 1.30 1.28 1.16 1.03 0.96 0.91 0.91 0.88 0.75 0.68 0.64 0.68 0.72
0.23 0.24 0.19 0.16 0.18 0.25 0.46 0.51 0.44 0.45 0.46 0.53 0.48 0.53 0.61 0.67 0.70 0.71 0.74 0.66 0.58 0.54 0.48 0.41 0.38 0.40 0.41 0.46 0.55 0.67 0.96 1.16 1.18 1.16 1.03 0.93 0.85 0.79 0.73 0.71 0.72 0.67 0.61 0.60
0.21 0.22 0.17 0.15 0.14 0.16 0.19 0.15 0.15 0.19 0.25 0.32 0.38 0.50 0.54 0.57 0.57 0.63 0.63 0.49 0.46 0.43 0.38 0.37 0.34 0.31 0.28 0.29 0.37 0.47 0.65 0.82 0.91 0.95 0.91 0.78 0.76 0.69 0.61 0.65 0.73 0.73 0.62 0.56
0.23 0.25 0.27 0.21 0.16 0.17 0.15 0.10 0.16 0.20 0.22 0.28 0.42 0.54 0.57 0.60 0.67 0.97 0.98 0.67 0.51 0.48 0.41 0.41 0.40 0.36 0.34 0.32 0.33 0.36 0.42 0.52 0.59 0.64 0.66 0.57 0.56 0.66 0.69 0.71 0.71 0.63 0.54 0.55
0.22 0.27 0.34 0.28 0.26 0.30 0.16 0.10 0.16 0.19 0.21 0.22 0.26 0.29 0.34 0.46 0.59 0.75 0.83 0.70 0.56 0.52 0.44 0.40 0.37 0.34 0.32 0.31 0.31 0.34 0.35 0.37 0.38 0.37 0.36 0.34 0.42 0.55 0.58 0.56 0.53 0.49 0.48 0.52
0.17 0.26 0.37 0.34 0.43 0.33 0.13 0.10 0.12 0.13 0.14 0.12 0.16 0.16 0.18 0.22 0.22 0.23 0.28 0.31 0.30 0.26 0.24 0.22 0.21 0.20 0.20 0.21 0.22 0.22 0.20 0.21 0.21 0.20 0.20 0.24 0.27 0.30 0.30 0.28 0.31 0.38 0.44 0.48
0.16 0.22 0.35 0.39 0.43 0.33 0.16 0.09 0.08 0.12 0.20 0.12 0.12 0.11 0.10 0.13 0.18 0.15 0.20 0.14 0.09 0.08 0.09 0.11 0.14 0.15 0.16 0.18 0.20 0.19 0.19 0.19 0.19 0.20 0.21 0.23 0.23 0.25 0.25 0.25 0.27 0.31 0.36 0.41
0.23 0.26 0.28 0.31 0.40 0.24 0.11 0.10 0.10 0.19 0.19 0.09 0.07 0.05 0.05 0.06 0.08 0.09 0.14 0.12 0.05 0.07 0.09 0.11 0.12 0.13 0.14 0.15 0.17 0.16 0.16 0.19 0.24 0.26 0.24 0.22 0.21 0.24 0.30 0.33 0.33 0.33 0.32 0.35
0.23 0.29 0.27 0.27 0.33 0.26 0.11 0.12 0.17 0.17 0.10 0.08 0.07 0.06 0.05 0.05 0.05 0.05 0.08 0.10 0.05 0.06 0.08 0.11 0.13 0.14 0.16 0.17 0.17 0.18 0.16 0.19 0.25 0.26 0.24 0.24 0.24 0.25 0.29 0.37 0.38 0.36 0.35 0.33
0.18 0.22 0.26 0.27 0.26 0.17 0.13 0.14 0.16 0.16 0.13 0.10 0.10 0.08 0.05 0.05 0.05 0.05 0.07 0.12 0.08 0.06 0.07 0.10 0.13 0.16 0.17 0.18 0.20 0.21 0.21 0.22 0.24 0.25 0.26 0.26 0.27 0.27 0.29 0.32 0.34 0.36 0.36 0.36
0.13 0.12 0.18 0.19 0.14 0.11 0.13 0.15 0.13 0.12 0.12 0.12 0.12 0.12 0.10 0.09 0.08 0.07 0.08 0.11 0.11 0.09 0.07 0.09 0.11 0.14 0.19 0.22 0.23 0.25 0.27 0.28 0.28 0.28 0.29 0.28 0.30 0.31 0.32 0.35 0.37 0.40 0.41 0.41
0.11 0.13 0.15 0.16 0.11 0.09 0.10 0.13 0.15 0.12 0.11 0.12 0.12 0.13 0.13 0.13 0.13 0.11 0.10 0.10 0.10 0.13 0.12 0.11 0.11 0.14 0.18 0.23 0.25 0.29 0.29 0.32 0.32 0.32 0.32 0.32 0.31 0.32 0.35 0.38 0.41 0.41 0.41 0.44
0.07 0.10 0.15 0.15 0.11 0.11 0.10 0.11 0.13 0.15 0.13 0.12 0.11 0.12 0.13 0.13 0.13 0.12 0.12 0.12 0.12 0.12 0.12 0.13 0.13 0.13 0.14 0.16 0.18 0.23 0.24 0.26 0.29 0.33 0.32 0.30 0.33 0.36 0.36 0.37 0.37 0.40 0.41 0.44